COMS 1

Last updated on Jan. 28, 2020, 4:40 a.m. UTC

1 36744U 10032A   20027.85740880 -.00000348  00000-0  00000+0 0  9996
2 36744   0.0269 130.2513 0000879 216.8496 216.2888  1.00271817 35266
UTC
Height (km)
Latitude
Longitude
Inclination
Orbital Period
UTC large
Height (km)
Speed (km/s)
/
Latitude / Longitude
Inclination (degrees)
Orbital Period (minutes)
Azimuth
Elevation
Range (km)
Doppler Factor
iOS Compass Heading
iOS Angle

Next 30 passes for location: Hong Kong

Rise time Rise Azimuth (degrees) Set time Set Azimuth (degrees) Duration Max altitude (degrees)

No matching passes for this satellites